TimeCDT,TemperatureF,Dew PointF,Humidity,Sea Level PressureIn,VisibilityMPH,Wind Direction,Wind SpeedMPH,Gust SpeedMPH,PrecipitationIn,Events,Conditions,WindDirDegrees,DateUTC
12:15 AM,69.3,66.4,91,29.90,10.0,Calm,Calm,-,N/A,,Scattered Clouds,0,2013-06-12 05:15:00
12:35 AM,68.9,66.2,91,29.90,10.0,Calm,Calm,-,N/A,,Scattered Clouds,0,2013-06-12 05:35:00
12:55 AM,68.0,66.4,95,29.91,10.0,Calm,Calm,-,N/A,,Clear,0,2013-06-12 05:55:00
1:15 AM,67.6,66.0,95,29.90,10.0,Calm,Calm,-,N/A,,Clear,0,2013-06-12 06:15:00
1:35 AM,68.9,67.3,95,29.92,10.0,Calm,Calm,-,N/A,,Mostly Cloudy,0,2013-06-12 06:35:00
1:55 AM,69.1,66.6,92,29.88,10.0,SSE,3.5,-,N/A,,Mostly Cloudy,150,2013-06-12 06:55:00
2:15 AM,68.9,66.4,92,29.85,10.0,SSE,5.8,-,N/A,,Scattered Clouds,150,2013-06-12 07:15:00
2:35 AM,70.0,66.4,88,29.84,10.0,Calm,Calm,-,N/A,,Clear,0,2013-06-12 07:35:00
2:55 AM,69.4,66.2,89,29.88,10.0,Calm,Calm,-,N/A,,Clear,0,2013-06-12 07:55:00
3:15 AM,70.2,66.4,88,29.90,10.0,North,5.8,-,N/A,,Scattered Clouds,360,2013-06-12 08:15:00
3:35 AM,70.5,66.4,87,29.90,10.0,North,3.5,-,N/A,,Overcast,350,2013-06-12 08:35:00
3:55 AM,70.0,66.0,87,29.88,10.0,NE,5.8,-,N/A,,Mostly Cloudy,50,2013-06-12 08:55:00
4:15 AM,69.6,65.7,87,29.87,10.0,NE,9.2,-,N/A,,Scattered Clouds,50,2013-06-12 09:15:00
4:35 AM,69.8,65.1,85,29.88,10.0,ENE,6.9,-,N/A,,Clear,70,2013-06-12 09:35:00
4:55 AM,69.4,64.4,84,29.86,10.0,ENE,8.1,-,N/A,,Clear,70,2013-06-12 09:55:00
5:15 AM,69.3,64.4,84,29.86,10.0,ESE,4.6,-,N/A,,Clear,110,2013-06-12 10:15:00
5:35 AM,69.8,63.5,80,29.87,10.0,Calm,Calm,-,N/A,,Clear,0,2013-06-12 10:35:00
5:55 AM,69.3,63.9,83,29.90,10.0,Calm,Calm,-,N/A,,Scattered Clouds,0,2013-06-12 10:55:00
6:15 AM,70.0,64.4,82,29.90,10.0,SSW,5.8,-,N/A,,Overcast,200,2013-06-12 11:15:00
6:35 AM,70.3,62.6,76,29.92,10.0,SSW,6.9,-,N/A,,Overcast,210,2013-06-12 11:35:00
6:55 AM,70.7,62.6,75,29.92,10.0,SW,4.6,-,N/A,,Overcast,220,2013-06-12 11:55:00
7:15 AM,70.7,62.8,76,29.91,10.0,SSW,4.6,-,N/A,,Mostly Cloudy,210,2013-06-12 12:15:00
7:35 AM,70.7,62.8,76,29.91,10.0,SSW,3.5,-,N/A,,Scattered Clouds,210,2013-06-12 12:35:00
7:55 AM,70.5,63.1,77,29.89,10.0,Calm,Calm,-,N/A,,Mostly Cloudy,0,2013-06-12 12:55:00
8:15 AM,69.8,64.4,83,29.91,10.0,SSW,8.1,-,N/A,,Scattered Clouds,210,2013-06-12 13:15:00
8:35 AM,70.7,63.0,76,29.91,10.0,SSW,9.2,-,N/A,,Mostly Cloudy,210,2013-06-12 13:35:00
8:55 AM,70.0,64.6,83,29.79,10.0,SE,12.7,-,0.01,,Overcast,130,2013-06-12 13:55:00
9:15 AM,72.0,65.1,79,29.78,10.0,East,6.9,-,N/A,,Scattered Clouds,80,2013-06-12 14:15:00
9:35 AM,72.5,66.0,80,29.76,10.0,East,6.9,-,N/A,,Clear,90,2013-06-12 14:35:00
9:55 AM,72.9,66.0,79,29.79,10.0,SSE,10.4,-,N/A,,Clear,160,2013-06-12 14:55:00
10:15 AM,74.7,66.7,76,29.77,10.0,East,6.9,-,N/A,,Clear,100,2013-06-12 15:15:00
10:35 AM,74.1,65.5,74,29.76,10.0,East,8.1,-,N/A,,Clear,100,2013-06-12 15:35:00
10:55 AM,75.9,66.7,73,29.77,10.0,ENE,6.9,-,N/A,,Clear,70,2013-06-12 15:55:00
11:15 AM,77.2,65.8,68,29.79,10.0,ENE,6.9,-,N/A,,Clear,60,2013-06-12 16:15:00
11:35 AM,77.7,65.7,66,29.80,10.0,NE,6.9,-,N/A,,Clear,50,2013-06-12 16:35:00
11:55 AM,77.5,66.2,68,29.81,10.0,ENE,4.6,-,N/A,,Clear,70,2013-06-12 16:55:00
12:15 PM,78.1,64.9,64,29.85,10.0,Calm,Calm,-,N/A,,Clear,0,2013-06-12 17:15:00
12:35 PM,78.1,65.5,65,29.84,10.0,NE,5.8,-,N/A,,Scattered Clouds,50,2013-06-12 17:35:00
12:55 PM,76.5,67.8,75,29.83,7.0,NNE,8.1,-,N/A,,Scattered Clouds,30,2013-06-12 17:55:00
1:15 PM,76.1,67.3,74,29.83,7.0,NE,8.1,-,N/A,,Scattered Clouds,40,2013-06-12 18:15:00
1:35 PM,75.9,67.3,74,29.82,10.0,ENE,10.4,-,N/A,,Scattered Clouds,70,2013-06-12 18:35:00
1:55 PM,76.8,67.6,73,29.81,10.0,ENE,8.1,-,N/A,,Clear,60,2013-06-12 18:55:00
2:15 PM,76.3,66.9,73,29.81,10.0,East,8.1,-,N/A,,Clear,80,2013-06-12 19:15:00
2:35 PM,75.9,67.1,74,29.79,10.0,East,8.1,-,N/A,,Scattered Clouds,80,2013-06-12 19:35:00
2:55 PM,77.2,67.3,71,29.78,10.0,East,5.8,-,N/A,,Scattered Clouds,90,2013-06-12 19:55:00
3:15 PM,77.2,66.9,71,29.77,10.0,East,6.9,-,N/A,,Scattered Clouds,100,2013-06-12 20:15:00
3:35 PM,75.2,67.3,76,29.76,7.0,East,9.2,-,0.01,,Mostly Cloudy,100,2013-06-12 20:35:00
3:55 PM,76.8,67.1,72,29.73,10.0,East,9.2,-,0.01,,Scattered Clouds,80,2013-06-12 20:55:00
4:15 PM,79.0,67.5,68,29.69,10.0,ESE,13.8,-,N/A,,Scattered Clouds,110,2013-06-12 21:15:00
4:35 PM,77.7,66.4,68,29.70,10.0,East,12.7,-,N/A,,Scattered Clouds,90,2013-06-12 21:35:00
4:55 PM,75.7,66.0,72,29.69,10.0,East,10.4,-,N/A,,Mostly Cloudy,100,2013-06-12 21:55:00
5:15 PM,75.2,65.7,72,29.67,10.0,ESE,9.2,-,N/A,,Overcast,110,2013-06-12 22:15:00
5:35 PM,75.2,64.9,70,29.70,10.0,NNE,3.5,-,N/A,,Overcast,20,2013-06-12 22:35:00
5:55 PM,71.2,65.3,81,29.71,5.0,NE,10.4,35.7,0.05,,Overcast,40,2013-06-12 22:55:00
6:15 PM,68.9,66.2,91,29.65,7.0,East,15.0,-,0.07,,Mostly Cloudy,90,2013-06-12 23:15:00
6:35 PM,68.2,66.2,93,29.66,10.0,East,8.1,26.5,0.07,,Mostly Cloudy,90,2013-06-12 23:35:00
6:55 PM,68.2,66.2,93,29.70,10.0,North,6.9,-,0.08,,Overcast,360,2013-06-12 23:55:00
7:15 PM,67.6,65.3,92,29.70,10.0,East,6.9,-,N/A,,Overcast,100,2013-06-13 00:15:00
7:35 PM,66.7,64.8,93,29.71,4.0,NNE,5.8,-,0.17,,Overcast,30,2013-06-13 00:35:00
7:55 PM,66.2,64.6,94,29.73,1.0,East,5.8,-,0.48,,Overcast,100,2013-06-13 00:55:00
8:15 PM,65.7,64.4,96,29.72,3.0,ENE,10.4,-,0.08,,Overcast,60,2013-06-13 01:15:00
8:35 PM,65.8,64.6,96,29.73,5.0,NE,5.8,-,0.16,,Overcast,40,2013-06-13 01:35:00
8:55 PM,66.4,64.9,95,29.75,10.0,NNE,9.2,-,0.18,,Overcast,30,2013-06-13 01:55:00
9:15 PM,66.2,64.9,96,29.73,7.0,NNE,5.8,-,0.04,,Overcast,20,2013-06-13 02:15:00
9:35 PM,66.2,64.8,95,29.72,7.0,East,9.2,-,0.06,,Overcast,100,2013-06-13 02:35:00
9:55 PM,65.8,64.4,95,29.72,10.0,East,5.8,-,0.08,,Overcast,90,2013-06-13 02:55:00
10:15 PM,65.5,64.0,95,29.68,10.0,ENE,13.8,19.6,0.01,,Overcast,60,2013-06-13 03:15:00
10:35 PM,64.9,63.7,96,29.72,10.0,NNW,10.4,19.6,0.02,,Overcast,340,2013-06-13 03:35:00
10:55 PM,64.4,63.0,95,29.74,10.0,NNW,10.4,16.1,0.02,,Overcast,330,2013-06-13 03:55:00
11:15 PM,63.7,62.1,94,29.76,10.0,North,5.8,-,N/A,,Overcast,360,2013-06-13 04:15:00
11:35 PM,63.1,61.7,95,29.76,10.0,North,10.4,-,N/A,,Overcast,10,2013-06-13 04:35:00
11:55 PM,63.0,61.2,94,29.77,10.0,North,13.8,-,N/A,,Overcast,10,2013-06-13 04:55:00